• In Uzbekistan
  • List of Countries
  • For 7 days
  • Water Temperature
  • Satellite Maps
  • Weather Map
  • Weather Widgets
  • user-avatar
    Login

    Hourly Weather Kitzbuhel

    Today, 30 March, Thursday

    Time Temperature Precipitation Wind Pressure Humidity
    00:00 +6°C° 0 mm 1 mps 682 mmHg 93%
    01:00 +6°C° 0 mm 1 mps 682 mmHg 91%
    02:00 +6°C° 0 mm 1 mps 682 mmHg 91%
    03:00 +6°C° 0 mm 1 mps 682 mmHg 91%
    04:00 +6°C° 0 mm 1 mps 682 mmHg 92%
    05:00 +6°C° 0 mm 1 mps 683 mmHg 91%
    06:00 +7°C° 0 mm 1 mps 683 mmHg 90%
    07:00 +8°C° 0 mm 1 mps 683 mmHg 86%
    08:00 +10°C° 0 mm 1 mps 683 mmHg 82%
    09:00 +10°C° 0 mm 0 mps 684 mmHg 78%
    10:00 +12°C° 0 mm 0 mps 684 mmHg 75%
    11:00 +13°C° 0 mm 0 mps 684 mmHg 71%
    12:00 +14°C° 0 mm 0 mps 684 mmHg 67%
    13:00 +15°C° 0 mm 0 mps 684 mmHg 63%
    14:00 +15°C° 0 mm 0 mps 683 mmHg 63%
    15:00 +15°C° 0 mm 1 mps 683 mmHg 64%
    16:00 +15°C° 0 mm 1 mps 683 mmHg 65%
    17:00 +12°C° 0 mm 1 mps 682 mmHg 73%
    18:00 +10°C° 0 mm 1 mps 682 mmHg 82%
    19:00 +7°C° 0 mm 1 mps 681 mmHg 91%
    20:00 +7°C° 0 mm 1 mps 681 mmHg 90%
    21:00 +6°C° 0 mm 2 mps 681 mmHg 89%
    22:00 +6°C° 0 mm 2 mps 682 mmHg 88%
    23:00 +6°C° 0 mm 2 mps 682 mmHg 87%

    Tomorrow, 31 March, Friday

    Time Temperature Precipitation Wind Pressure Humidity
    00:00 +6°C° 0 mm 2 mps 682 mmHg 87%
    01:00 +6°C° 0 mm 2 mps 681 mmHg 86%
    02:00 +5°C° 0 mm 2 mps 681 mmHg 86%
    03:00 +5°C° 0 mm 2 mps 681 mmHg 86%
    04:00 +5°C° 0 mm 2 mps 680 mmHg 86%
    05:00 +6°C° 0 mm 2 mps 680 mmHg 85%
    06:00 +6°C° 0 mm 2 mps 680 mmHg 85%
    07:00 +6°C° 0 mm 2 mps 680 mmHg 85%
    08:00 +9°C° 0 mm 2 mps 681 mmHg 78%
    09:00 +12°C° 0 mm 2 mps 681 mmHg 72%
    10:00 +15°C° 0 mm 1 mps 681 mmHg 65%
    11:00 +16°C° 0 mm 1 mps 681 mmHg 61%
    12:00 +18°C° 0 mm 1 mps 680 mmHg 57%
    13:00 +19°C° 0 mm 1 mps 680 mmHg 53%
    14:00 +19°C° 0 mm 1 mps 680 mmHg 56%
    15:00 +17°C° 0 mm 2 mps 679 mmHg 58%
    16:00 +17°C° 0 mm 2 mps 679 mmHg 61%
    17:00 +15°C° 0 mm 2 mps 678 mmHg 71%
    18:00 +12°C° 0 mm 2 mps 677 mmHg 82%
    19:00 +8°C° 0 mm 2 mps 676 mmHg 92%
    20:00 +8°C° 0 mm 2 mps 676 mmHg 91%
    21:00 +7°C° 0 mm 2 mps 676 mmHg 91%
    22:00 +7°C° 0 mm 2 mps 676 mmHg 90%
    23:00 +7°C° 0 mm 2 mps 676 mmHg 90%

    Day after tomorrow, 1 April, Saturday

    Time Temperature Precipitation Wind Pressure Humidity
    00:00 +7°C° 0 mm 2 mps 676 mmHg 89%
    01:00 +6°C° 0 mm 2 mps 676 mmHg 89%
    02:00 +5°C° 0 mm 3 mps 675 mmHg 89%
    03:00 +5°C° 0 mm 3 mps 675 mmHg 89%
    04:00 +5°C° 0 mm 3 mps 674 mmHg 89%
    05:00 +5°C° 0 mm 3 mps 674 mmHg 89%
    06:00 +6°C° 0 mm 2 mps 674 mmHg 88%
    07:00 +6°C° 0 mm 2 mps 674 mmHg 87%
    08:00 +8°C° 0 mm 2 mps 675 mmHg 79%
    09:00 +12°C° 0 mm 2 mps 675 mmHg 71%
    10:00 +14°C° 0 mm 2 mps 675 mmHg 63%
    11:00 +15°C° 0 mm 2 mps 675 mmHg 60%
    12:00 +16°C° 0 mm 2 mps 675 mmHg 57%
    13:00 +17°C° 0 mm 2 mps 675 mmHg 54%
    14:00 +16°C° 0.3 mm 2 mps 675 mmHg 57%
    15:00 +15°C° 0.3 mm 2 mps 674 mmHg 61%
    16:00 +15°C° 0.3 mm 2 mps 674 mmHg 65%
    17:00 +13°C° 0.4 mm 2 mps 674 mmHg 74%
    18:00 +10°C° 0.4 mm 1 mps 673 mmHg 83%
    19:00 +8°C° 0.4 mm 1 mps 673 mmHg 93%
    20:00 +7°C° 0.1 mm 2 mps 674 mmHg 92%
    21:00 +6°C° 0.1 mm 2 mps 674 mmHg 92%
    22:00 +6°C° 0.1 mm 2 mps 674 mmHg 91%
    23:00 +6°C° 0 mm 2 mps 675 mmHg 92%

    2 April, Sunday

    Time Temperature Precipitation Wind Pressure Humidity
    00:00 +5°C° 0 mm 2 mps 675 mmHg 92%
    01:00 +5°C° 0 mm 2 mps 675 mmHg 93%
    02:00 +4°C° 0 mm 2 mps 675 mmHg 93%
    03:00 +5°C° 0 mm 1 mps 675 mmHg 94%
    04:00 +5°C° 0 mm 1 mps 675 mmHg 94%
    05:00 +5°C° 0 mm 1 mps 675 mmHg 90%
    06:00 +6°C° 0 mm 1 mps 676 mmHg 87%
    07:00 +7°C° 0 mm 1 mps 676 mmHg 83%
    08:00 +8°C° 0 mm 1 mps 676 mmHg 78%
    09:00 +10°C° 0 mm 1 mps 677 mmHg 72%
    10:00 +11°C° 0 mm 1 mps 677 mmHg 67%
    11:00 +12°C° 0 mm 2 mps 677 mmHg 66%
    12:00 +13°C° 0 mm 2 mps 677 mmHg 65%
    13:00 +13°C° 0 mm 2 mps 678 mmHg 64%
    14:00 +13°C° 0.1 mm 2 mps 677 mmHg 67%
    15:00 +12°C° 0.1 mm 2 mps 677 mmHg 71%
    16:00 +12°C° 0.1 mm 2 mps 677 mmHg 75%
    17:00 +11°C° 0.1 mm 1 mps 677 mmHg 82%
    18:00 +9°C° 0.1 mm 1 mps 677 mmHg 88%
    19:00 +8°C° 0.1 mm 1 mps 677 mmHg 95%
    20:00 +8°C° 0 mm 1 mps 678 mmHg 95%
    21:00 +8°C° 0 mm 1 mps 678 mmHg 96%
    22:00 +8°C° 0 mm 1 mps 679 mmHg 96%
    23:00 +8°C° 0 mm 1 mps 679 mmHg 96%

    3 April, Monday

    Time Temperature Precipitation Wind Pressure Humidity
    00:00 +8°C° 0 mm 1 mps 679 mmHg 97%
    01:00 +8°C° 0 mm 1 mps 679 mmHg 97%
    02:00 +8°C° 0.1 mm 1 mps 679 mmHg 97%
    03:00 +7°C° 0.1 mm 1 mps 679 mmHg 97%
    04:00 +7°C° 0.1 mm 1 mps 679 mmHg 97%
    05:00 +7°C° 0.1 mm 1 mps 679 mmHg 97%
    06:00 +8°C° 0.1 mm 1 mps 679 mmHg 96%
    07:00 +8°C° 0.1 mm 1 mps 680 mmHg 95%
    08:00 +8°C° 0.1 mm 1 mps 680 mmHg 91%
    09:00 +9°C° 0.1 mm 1 mps 680 mmHg 86%
    10:00 +10°C° 0.1 mm 1 mps 680 mmHg 82%
    11:00 +10°C° 0.2 mm 2 mps 680 mmHg 80%
    12:00 +10°C° 0.2 mm 2 mps 680 mmHg 79%
    13:00 +12°C° 0.2 mm 2 mps 680 mmHg 78%
    14:00 +10°C° 0.3 mm 2 mps 679 mmHg 80%
    15:00 +10°C° 0.3 mm 2 mps 679 mmHg 81%
    16:00 +10°C° 0.3 mm 2 mps 679 mmHg 83%
    17:00 +9°C° 0.4 mm 2 mps 679 mmHg 87%
    18:00 +8°C° 0.4 mm 1 mps 679 mmHg 92%
    19:00 +7°C° 0.4 mm 1 mps 679 mmHg 96%
    20:00 +7°C° 0.4 mm 1 mps 679 mmHg 96%
    21:00 +7°C° 0.4 mm 1 mps 679 mmHg 96%
    22:00 +7°C° 0.4 mm 1 mps 680 mmHg 96%
    23:00 +7°C° 0.2 mm 1 mps 680 mmHg 97%

    4 April, Tuesday

    Time Temperature Precipitation Wind Pressure Humidity
    00:00 +6°C° 0.2 mm 1 mps 680 mmHg 97%
    01:00 +6°C° 0.2 mm 1 mps 679 mmHg 97%
    02:00 +6°C° 0.1 mm 1 mps 679 mmHg 97%
    03:00 +4°C° 0.1 mm 2 mps 679 mmHg 97%
    04:00 +4°C° 0.1 mm 2 mps 679 mmHg 97%
    05:00 +4°C° 0.1 mm 2 mps 679 mmHg 96%
    06:00 +4°C° 0.1 mm 2 mps 679 mmHg 94%
    07:00 +4°C° 0.1 mm 2 mps 679 mmHg 93%
    08:00 +5°C° 0.1 mm 2 mps 679 mmHg 87%
    09:00 +6°C° 0.1 mm 2 mps 680 mmHg 82%
    10:00 +6°C° 0.1 mm 2 mps 680 mmHg 76%
    11:00 +7°C° 0.1 mm 2 mps 680 mmHg 74%
    12:00 +7°C° 0.1 mm 2 mps 679 mmHg 72%
    13:00 +8°C° 0.1 mm 2 mps 679 mmHg 70%
    14:00 +8°C° 0.1 mm 2 mps 679 mmHg 70%
    15:00 +8°C° 0.1 mm 2 mps 679 mmHg 71%
    16:00 +7°C° 0.1 mm 2 mps 679 mmHg 72%
    17:00 +6°C° 0.1 mm 2 mps 679 mmHg 78%
    18:00 +5°C° 0.1 mm 2 mps 679 mmHg 85%
    19:00 +4°C° 0.1 mm 1 mps 679 mmHg 92%
    20:00 +3°C° 0.1 mm 2 mps 680 mmHg 92%
    21:00 +3°C° 0.1 mm 2 mps 680 mmHg 92%
    22:00 +3°C° 0.1 mm 2 mps 680 mmHg 92%
    23:00 +3°C° 0.2 mm 2 mps 680 mmHg 93%
    Show more